This demonstration page uses our WeatherBlox Daily Observations layout. Learn more.

Left ArrowRight Arrow

38.20091, -84.87328

Hourly Observations for August 26, 2017

Temp ( °F °C ) Dew Point ( °F °C ) Humidity (%) Winds ( mph kmh ) Pressure ( in mb ) Visibility ( mi km ) Precip ( " mm )
12:53 am 00:53 Clear 64 17.8 51 10.6 63 63 ENE 3 6 30.19 1023 10 16 0.00 0.00
1:53 am 01:53 Clear 59 15 51 10.6 75 75 Calm 30.20 1023 10 16 0.00 0.00
2:53 am 02:53 Clear 60 15.6 51 10.6 72 72 Calm 30.20 1023 10 16 0.00 0.00
3:53 am 03:53 Clear 56 13.3 50 10 81 81 Calm 30.19 1023 10 16 0.00 0.00
4:53 am 04:53 Clear 58 14.4 50 10 75 75 Calm 30.19 1022 10 16 0.00 0.00
5:53 am 05:53 Clear 57 13.9 50 10 78 78 Calm 30.20 1023 10 16 0.00 0.00
6:53 am 06:53 Clear 54 12.2 49 9.4 83 83 Calm 30.21 1023 10 16 0.00 0.00
7:53 am 07:53 Sunny 57 13.9 51 10.6 81 81 Calm 30.23 1024 10 16 0.00 0.00
8:53 am 08:53 Sunny 62 16.7 51 10.6 67 67 ENE 7 11 30.23 1024 10 16 0.00 0.00
9:53 am 09:53 Sunny 67 19.4 53 11.7 61 61 ENE 6 9 30.23 1024 10 16 0.00 0.00
10:53 am 10:53 Sunny 73 22.8 53 11.7 50 50 E 9 15 30.23 1024 10 16 0.00 0.00
11:53 am 11:53 Sunny 76 24.4 50 10 40 40 ENE 7 11 30.22 1023 10 16 0.00 0.00
12:53 pm 12:53 Sunny 77 25 49 9.4 37 37 E 8 13 30.21 1023 10 16 0.00 0.00
1:53 pm 13:53 Sunny 79 26.1 50 10 36 36 VRB 5 7 30.20 1023 10 16 0.00 0.00
2:53 pm 14:53 Sunny 80 26.7 48 8.9 33 33 NNE 8 13 30.18 1022 10 16 0.00 0.00
3:53 pm 15:53 Sunny 81 27.2 48 8.9 32 32 NE 9 15 30.17 1022 10 16 0.00 0.00
4:53 pm 16:53 Sunny 81 27.2 50 10 34 34 NE 8 13 30.15 1021 10 16 0.00 0.00
5:53 pm 17:53 Sunny 79 26.1 49 9.4 35 35 ENE 9 15 30.15 1021 10 16 0.00 0.00
6:53 pm 18:53 Sunny 78 25.6 48 8.9 35 35 E 7 11 30.15 1021 10 16 0.00 0.00
7:53 pm 19:53 Sunny 76 24.4 50 10 40 40 NNE 3 6 30.15 1021 10 16 0.00 0.00
8:53 pm 20:53 Clear 71 21.7 52 11.1 51 51 ENE 3 6 30.16 1021 10 16 0.00 0.00
9:53 pm 21:53 Clear 66 18.9 54 12.2 65 65 N 3 6 30.17 1022 10 16 0.00 0.00
10:53 pm 22:53 Clear 69 20.6 53 11.7 57 57 NE 3 6 30.16 1021 10 16 0.00 0.00
11:53 pm 23:53 Clear 67 19.4 53 11.7 61 61 NE 6 9 30.16 1021 10 16 0.00 0.00

Powered by AerisWeather